Location: Godiavel Galaoual
(15.2485°N, 12.6604°W)
Time: 11:54:08
(UTC+00:00)

LightSail 2 - Pass Details

Date: 04 June 2020
Orbit: 692 x 720 km, 24.0° (Epoch: 14 July)

Event Time Altitude Azimuth Distance (km) Brightness Sun altitude
Exits shadow 04:19:23 27° 324° (NW) 1,347 6.5 -26.2°
Maximum altitude 04:21:26 38° 10° (N) 1,075 6.3 -25.8°
Drops below altitude 10° 04:26:16 10° 79° (E) 2,191 8.5 -24.8°
Sets 04:28:51 0° 87° (E) 3,112 9.4 -24.3°
